Year,Month,Day,Hour,Minute,Value (Times are PST for windgust in km/hr)
2012,03,12,00,00,48.30
2012,03,12,00,01,45.10
2012,03,12,00,02,35.40
2012,03,12,00,03,45.10
2012,03,12,00,04,32.20
2012,03,12,00,05,25.70
2012,03,12,00,06,41.80
2012,03,12,00,07,30.60
2012,03,12,00,08,33.80
2012,03,12,00,09,24.20
2012,03,12,00,10,40.20
2012,03,12,00,11,41.80
2012,03,12,00,12,43.50
2012,03,12,00,13,38.60
2012,03,12,00,14,40.20
2012,03,12,00,15,38.60
2012,03,12,00,16,45.10
2012,03,12,00,17,40.20
2012,03,12,00,18,38.60
2012,03,12,00,19,43.50
2012,03,12,00,20,37.00
2012,03,12,00,21,45.10
2012,03,12,00,22,33.80
2012,03,12,00,23,32.20
2012,03,12,00,24,35.40
2012,03,12,00,25,19.30
2012,03,12,00,26,41.80
2012,03,12,00,27,27.40
2012,03,12,00,28,22.50
2012,03,12,00,29,38.60
2012,03,12,00,30,24.20
2012,03,12,00,31,24.20
2012,03,12,00,32,19.30
2012,03,12,00,33,30.60
2012,03,12,00,34,46.70
2012,03,12,00,35,29.00
2012,03,12,00,36,29.00
2012,03,12,00,37,32.20
2012,03,12,00,38,43.50
2012,03,12,00,39,37.00
2012,03,12,00,40,24.20
2012,03,12,00,41,30.60
2012,03,12,00,42,35.40
2012,03,12,00,43,33.80
2012,03,12,00,44,43.50
2012,03,12,00,45,35.40
2012,03,12,00,46,49.90
2012,03,12,00,47,56.30
2012,03,12,00,48,59.50
2012,03,12,00,49,29.00
2012,03,12,00,50,45.10
2012,03,12,00,51,37.00
2012,03,12,00,52,43.50
2012,03,12,00,53,37.00
2012,03,12,00,54,37.00
2012,03,12,00,55,38.60
2012,03,12,00,56,40.20
2012,03,12,00,57,43.50
2012,03,12,00,58,43.50
2012,03,12,00,59,37.00
2012,03,12,01,00,22.50
2012,03,12,01,01,32.20
2012,03,12,01,02,37.00
2012,03,12,01,03,40.20
2012,03,12,01,04,33.80
2012,03,12,01,05,45.10
2012,03,12,01,06,40.20
2012,03,12,01,07,33.80
2012,03,12,01,08,49.90
2012,03,12,01,09,46.70
2012,03,12,01,10,43.50
2012,03,12,01,11,33.80
2012,03,12,01,12,54.70
2012,03,12,01,13,43.50
2012,03,12,01,14,49.90
2012,03,12,01,15,45.10
2012,03,12,01,16,49.90
2012,03,12,01,17,45.10
2012,03,12,01,18,37.00
2012,03,12,01,19,38.60
2012,03,12,01,20,32.20
2012,03,12,01,21,35.40
2012,03,12,01,22,45.10
2012,03,12,01,23,22.50
2012,03,12,01,24,48.30
2012,03,12,01,25,43.50
2012,03,12,01,26,41.80
2012,03,12,01,27,30.60
2012,03,12,01,28,38.60
2012,03,12,01,29,25.70
2012,03,12,01,30,48.30
2012,03,12,01,31,46.70
2012,03,12,01,32,49.90
2012,03,12,01,33,43.50
2012,03,12,01,34,45.10
2012,03,12,01,35,38.60
2012,03,12,01,36,54.70
2012,03,12,01,37,37.00
2012,03,12,01,38,25.70
2012,03,12,01,39,27.40
2012,03,12,01,40,40.20
2012,03,12,01,41,49.90
2012,03,12,01,42,49.90
2012,03,12,01,43,45.10
2012,03,12,01,44,43.50
2012,03,12,01,45,33.80
2012,03,12,01,46,32.20
2012,03,12,01,47,62.70
2012,03,12,01,48,51.50
2012,03,12,01,49,45.10
2012,03,12,01,50,41.80
2012,03,12,01,51,46.70
2012,03,12,01,52,48.30
2012,03,12,01,53,40.20
2012,03,12,01,54,45.10
2012,03,12,01,55,53.10
2012,03,12,01,56,57.90
2012,03,12,01,57,49.90
2012,03,12,01,58,40.20
2012,03,12,01,59,53.10
2012,03,12,02,00,53.10
2012,03,12,02,01,53.10
2012,03,12,02,02,57.90
2012,03,12,02,03,45.10
2012,03,12,02,04,62.70
2012,03,12,02,05,56.30
2012,03,12,02,06,54.70
2012,03,12,02,07,49.90
2012,03,12,02,08,37.00
2012,03,12,02,09,30.60
2012,03,12,02,10,41.80
2012,03,12,02,11,38.60
2012,03,12,02,12,46.70
2012,03,12,02,13,45.10
2012,03,12,02,14,46.70
2012,03,12,02,15,48.30
2012,03,12,02,16,53.10
2012,03,12,02,17,53.10
2012,03,12,02,18,53.10
2012,03,12,02,19,45.10
2012,03,12,02,20,33.80
2012,03,12,02,21,24.20
2012,03,12,02,22,29.00
2012,03,12,02,23,37.00
2012,03,12,02,24,51.50
2012,03,12,02,25,48.30
2012,03,12,02,26,62.70
2012,03,12,02,27,59.50
2012,03,12,02,28,67.60
2012,03,12,02,29,51.50
2012,03,12,02,30,54.70
2012,03,12,02,31,69.20
2012,03,12,02,32,48.30
2012,03,12,02,33,48.30
2012,03,12,02,34,45.10
2012,03,12,02,35,38.60
2012,03,12,02,36,53.10
2012,03,12,02,37,53.10
2012,03,12,02,38,53.10
2012,03,12,02,39,37.00
2012,03,12,02,40,49.90
2012,03,12,02,41,48.30
2012,03,12,02,42,29.00
2012,03,12,02,43,48.30
2012,03,12,02,44,40.20
2012,03,12,02,45,43.50
2012,03,12,02,46,53.10
2012,03,12,02,47,51.50
2012,03,12,02,48,49.90
2012,03,12,02,49,40.20
2012,03,12,02,50,59.50
2012,03,12,02,51,54.70
2012,03,12,02,52,43.50
2012,03,12,02,53,41.80
2012,03,12,02,54,43.50
2012,03,12,02,55,61.20
2012,03,12,02,56,40.20
2012,03,12,02,57,49.90
2012,03,12,02,58,48.30
2012,03,12,02,59,33.80
2012,03,12,03,00,38.60
2012,03,12,03,01,49.90
2012,03,12,03,02,40.20
2012,03,12,03,03,40.20
2012,03,12,03,04,53.10
2012,03,12,03,05,51.50
2012,03,12,03,06,37.00
2012,03,12,03,07,48.30
2012,03,12,03,08,45.10
2012,03,12,03,09,61.20
2012,03,12,03,10,62.70
2012,03,12,03,11,67.60
2012,03,12,03,12,57.90
2012,03,12,03,13,48.30
2012,03,12,03,14,43.50
2012,03,12,03,15,43.50
2012,03,12,03,16,33.80
2012,03,12,03,17,54.70
2012,03,12,03,18,64.40
2012,03,12,03,19,67.60
2012,03,12,03,20,46.70
2012,03,12,03,21,51.50
2012,03,12,03,22,51.50
2012,03,12,03,23,38.60
2012,03,12,03,24,48.30
2012,03,12,03,25,45.10
2012,03,12,03,26,51.50
2012,03,12,03,27,57.90
2012,03,12,03,28,38.60
2012,03,12,03,29,48.30
2012,03,12,03,30,40.20
2012,03,12,03,31,53.10
2012,03,12,03,32,45.10
2012,03,12,03,33,49.90
2012,03,12,03,34,46.70
2012,03,12,03,35,46.70
2012,03,12,03,36,61.20
2012,03,12,03,37,51.50
2012,03,12,03,38,61.20
2012,03,12,03,39,57.90
2012,03,12,03,40,54.70
2012,03,12,03,41,41.80
2012,03,12,03,42,49.90
2012,03,12,03,43,54.70
2012,03,12,03,44,40.20
2012,03,12,03,45,57.90
2012,03,12,03,46,51.50
2012,03,12,03,47,67.60
2012,03,12,03,48,46.70
2012,03,12,03,49,59.50
2012,03,12,03,50,45.10
2012,03,12,03,51,49.90
2012,03,12,03,52,61.20
2012,03,12,03,53,59.50
2012,03,12,03,54,53.10
2012,03,12,03,55,54.70
2012,03,12,03,56,64.40
2012,03,12,03,57,72.40
2012,03,12,03,58,62.70
2012,03,12,03,59,48.30
2012,03,12,04,00,57.90
2012,03,12,04,01,57.90
2012,03,12,04,02,53.10
2012,03,12,04,03,66.00
2012,03,12,04,04,64.40
2012,03,12,04,05,72.40
2012,03,12,04,06,51.50
2012,03,12,04,07,56.30
2012,03,12,04,08,67.60
2012,03,12,04,09,69.20
2012,03,12,04,10,51.50
2012,03,12,04,11,75.60
2012,03,12,04,12,57.90
2012,03,12,04,13,49.90
2012,03,12,04,14,53.10
2012,03,12,04,15,69.20
2012,03,12,04,16,70.80
2012,03,12,04,17,53.10
2012,03,12,04,18,66.00
2012,03,12,04,19,45.10
2012,03,12,04,20,57.90
2012,03,12,04,21,74.00
2012,03,12,04,22,61.20
2012,03,12,04,23,51.50
2012,03,12,04,24,62.70
2012,03,12,04,25,66.00
2012,03,12,04,26,59.50
2012,03,12,04,27,57.90
2012,03,12,04,28,62.70
2012,03,12,04,29,62.70
2012,03,12,04,30,56.30
2012,03,12,04,31,61.20
2012,03,12,04,32,53.10
2012,03,12,04,33,64.40
2012,03,12,04,34,62.70
2012,03,12,04,35,72.40
2012,03,12,04,36,64.40
2012,03,12,04,37,37.00
2012,03,12,04,38,46.70
2012,03,12,04,39,64.40
2012,03,12,04,40,46.70
2012,03,12,04,41,69.20
2012,03,12,04,42,54.70
2012,03,12,04,43,66.00
2012,03,12,04,44,62.70
2012,03,12,04,45,54.70
2012,03,12,04,46,54.70
2012,03,12,04,47,62.70
2012,03,12,04,48,57.90
2012,03,12,04,49,51.50
2012,03,12,04,50,72.40
2012,03,12,04,51,45.10
2012,03,12,04,52,51.50
2012,03,12,04,53,56.30
2012,03,12,04,54,49.90
2012,03,12,04,55,48.30
2012,03,12,04,56,46.70
2012,03,12,04,57,46.70
2012,03,12,04,58,66.00
2012,03,12,04,59,75.60
2012,03,12,05,00,69.20
2012,03,12,05,01,56.30
2012,03,12,05,02,56.30
2012,03,12,05,03,49.90
2012,03,12,05,04,57.90
2012,03,12,05,05,54.70
2012,03,12,05,06,67.60
2012,03,12,05,07,70.80
2012,03,12,05,08,70.80
2012,03,12,05,09,70.80
2012,03,12,05,10,72.40
2012,03,12,05,11,41.80
2012,03,12,05,12,64.40
2012,03,12,05,13,69.20
2012,03,12,05,14,49.90
2012,03,12,05,15,59.50
2012,03,12,05,16,67.60
2012,03,12,05,17,64.40
2012,03,12,05,18,49.90
2012,03,12,05,19,61.20
2012,03,12,05,20,56.30
2012,03,12,05,21,70.80
2012,03,12,05,22,67.60
2012,03,12,05,23,70.80
2012,03,12,05,24,56.30
2012,03,12,05,25,61.20
2012,03,12,05,26,49.90
2012,03,12,05,27,57.90
2012,03,12,05,28,53.10
2012,03,12,05,29,51.50
2012,03,12,05,30,66.00
2012,03,12,05,31,67.60
2012,03,12,05,32,61.20
2012,03,12,05,33,66.00
2012,03,12,05,34,69.20
2012,03,12,05,35,56.30
2012,03,12,05,36,56.30
2012,03,12,05,37,49.90
2012,03,12,05,38,67.60
2012,03,12,05,39,53.10
2012,03,12,05,40,69.20
2012,03,12,05,41,56.30
2012,03,12,05,42,66.00
2012,03,12,05,43,80.50
2012,03,12,05,44,46.70
2012,03,12,05,45,61.20
2012,03,12,05,46,53.10
2012,03,12,05,47,66.00
2012,03,12,05,48,61.20
2012,03,12,05,49,82.10
2012,03,12,05,50,66.00
2012,03,12,05,51,78.80
2012,03,12,05,52,74.00
2012,03,12,05,53,64.40
2012,03,12,05,54,59.50
2012,03,12,05,55,49.90
2012,03,12,05,56,54.70
2012,03,12,05,57,54.70
2012,03,12,05,58,54.70
2012,03,12,05,59,62.70
2012,03,12,06,00,45.10
2012,03,12,06,01,66.00
2012,03,12,06,02,54.70
2012,03,12,06,03,69.20
2012,03,12,06,04,61.20
2012,03,12,06,05,59.50
2012,03,12,06,06,59.50
2012,03,12,06,07,62.70
2012,03,12,06,08,62.70
2012,03,12,06,09,72.40
2012,03,12,06,10,69.20
2012,03,12,06,11,53.10
2012,03,12,06,12,59.50
2012,03,12,06,13,66.00
2012,03,12,06,14,75.60
2012,03,12,06,15,57.90
2012,03,12,06,16,64.40
2012,03,12,06,17,49.90
2012,03,12,06,18,62.70
2012,03,12,06,19,66.00
2012,03,12,06,20,56.30
2012,03,12,06,21,61.20
2012,03,12,06,22,51.50
2012,03,12,06,23,69.20
2012,03,12,06,24,62.70
2012,03,12,06,25,64.40
2012,03,12,06,26,69.20
2012,03,12,06,27,70.80
2012,03,12,06,28,64.40
2012,03,12,06,29,54.70
2012,03,12,06,30,75.60
2012,03,12,06,31,67.60
2012,03,12,06,32,57.90
2012,03,12,06,33,49.90
2012,03,12,06,34,59.50
2012,03,12,06,35,53.10
2012,03,12,06,36,59.50
2012,03,12,06,37,62.70
2012,03,12,06,38,70.80
2012,03,12,06,39,59.50
2012,03,12,06,40,57.90
2012,03,12,06,41,62.70
2012,03,12,06,42,69.20
2012,03,12,06,43,62.70
2012,03,12,06,44,59.50
2012,03,12,06,45,66.00
2012,03,12,06,46,67.60
2012,03,12,06,47,86.90
2012,03,12,06,48,67.60
2012,03,12,06,49,67.60
2012,03,12,06,50,61.20
2012,03,12,06,51,59.50
2012,03,12,06,52,66.00
2012,03,12,06,53,66.00
2012,03,12,06,54,56.30
2012,03,12,06,55,56.30
2012,03,12,06,56,67.60
2012,03,12,06,57,62.70
2012,03,12,06,58,66.00
2012,03,12,06,59,67.60
2012,03,12,07,00,69.20
2012,03,12,07,01,64.40
2012,03,12,07,02,64.40
2012,03,12,07,03,77.30
2012,03,12,07,04,45.10
2012,03,12,07,05,69.20
2012,03,12,07,06,70.80
2012,03,12,07,07,56.30
2012,03,12,07,08,56.30
2012,03,12,07,09,62.70
2012,03,12,07,10,53.10
2012,03,12,07,11,59.50
2012,03,12,07,12,66.00
2012,03,12,07,13,40.20
2012,03,12,07,14,56.30
2012,03,12,07,15,49.90
2012,03,12,07,16,70.80
2012,03,12,07,17,78.80
2012,03,12,07,18,51.50
2012,03,12,07,19,67.60
2012,03,12,07,20,80.50
2012,03,12,07,21,67.60
2012,03,12,07,22,69.20
2012,03,12,07,23,67.60
2012,03,12,07,24,61.20
2012,03,12,07,25,49.90
2012,03,12,07,26,66.00
2012,03,12,07,27,75.60
2012,03,12,07,28,67.60
2012,03,12,07,29,72.40
2012,03,12,07,30,82.10
2012,03,12,07,31,56.30
2012,03,12,07,32,70.80
2012,03,12,07,33,56.30
2012,03,12,07,34,62.70
2012,03,12,07,35,56.30
2012,03,12,07,36,62.70
2012,03,12,07,37,69.20
2012,03,12,07,38,54.70
2012,03,12,07,39,77.30
2012,03,12,07,40,64.40
2012,03,12,07,41,77.30
2012,03,12,07,42,82.10
2012,03,12,07,43,80.50
2012,03,12,07,44,70.80
2012,03,12,07,45,53.10
2012,03,12,07,46,72.40
2012,03,12,07,47,51.50
2012,03,12,07,48,49.90
2012,03,12,07,49,66.00
2012,03,12,07,50,59.50
2012,03,12,07,51,70.80
2012,03,12,07,52,77.30
2012,03,12,07,53,70.80
2012,03,12,07,54,72.40
2012,03,12,07,55,51.50
2012,03,12,07,56,83.70
2012,03,12,07,57,75.60
2012,03,12,07,58,90.10
2012,03,12,07,59,80.50
2012,03,12,08,00,101.40
2012,03,12,08,01,64.40
2012,03,12,08,02,77.30
2012,03,12,08,03,64.40
2012,03,12,08,04,54.70
2012,03,12,08,05,85.30
2012,03,12,08,06,57.90
2012,03,12,08,07,72.40
2012,03,12,08,08,80.50
2012,03,12,08,09,69.20
2012,03,12,08,10,74.00
2012,03,12,08,11,59.50
2012,03,12,08,12,51.50
2012,03,12,08,13,83.70
2012,03,12,08,14,51.50
2012,03,12,08,15,61.20
2012,03,12,08,16,66.00
2012,03,12,08,17,70.80
2012,03,12,08,18,74.00
2012,03,12,08,19,74.00
2012,03,12,08,20,59.50
2012,03,12,08,21,77.30
2012,03,12,08,22,83.70
2012,03,12,08,23,61.20
2012,03,12,08,24,57.90
2012,03,12,08,25,83.70
2012,03,12,08,26,75.60
2012,03,12,08,27,80.50
2012,03,12,08,28,72.40
2012,03,12,08,29,74.00
2012,03,12,08,30,86.90
2012,03,12,08,31,66.00
2012,03,12,08,32,83.70
2012,03,12,08,33,72.40
2012,03,12,08,34,46.70
2012,03,12,08,35,82.10
2012,03,12,08,36,96.60
2012,03,12,08,37,72.40
2012,03,12,08,38,74.00
2012,03,12,08,39,56.30
2012,03,12,08,40,57.90
2012,03,12,08,41,69.20
2012,03,12,08,42,51.50
2012,03,12,08,43,78.80
2012,03,12,08,44,75.60
2012,03,12,08,45,59.50
2012,03,12,08,46,67.60
2012,03,12,08,47,64.40
2012,03,12,08,48,86.90
2012,03,12,08,49,43.50
2012,03,12,08,50,62.70
2012,03,12,08,51,72.40
2012,03,12,08,52,82.10
2012,03,12,08,53,75.60
2012,03,12,08,54,74.00
2012,03,12,08,55,57.90
2012,03,12,08,56,67.60
2012,03,12,08,57,61.20
2012,03,12,08,58,78.80
2012,03,12,08,59,54.70
2012,03,12,09,00,70.80
2012,03,12,09,01,86.90
2012,03,12,09,02,67.60
2012,03,12,09,03,75.60
2012,03,12,09,04,75.60
2012,03,12,09,05,80.50
2012,03,12,09,06,69.20
2012,03,12,09,07,66.00
2012,03,12,09,08,54.70
2012,03,12,09,09,53.10
2012,03,12,09,10,62.70
2012,03,12,09,11,56.30
2012,03,12,09,12,54.70
2012,03,12,09,13,74.00
2012,03,12,09,14,66.00
2012,03,12,09,15,54.70
2012,03,12,09,16,74.00
2012,03,12,09,17,77.30
2012,03,12,09,18,57.90
2012,03,12,09,19,54.70
2012,03,12,09,20,69.20
2012,03,12,09,21,72.40
2012,03,12,09,22,77.30
2012,03,12,09,23,82.10
2012,03,12,09,24,53.10
2012,03,12,09,25,56.30
2012,03,12,09,26,59.50
2012,03,12,09,27,54.70
2012,03,12,09,28,56.30
2012,03,12,09,29,64.40
2012,03,12,09,30,88.50
2012,03,12,09,31,75.60
2012,03,12,09,32,82.10
2012,03,12,09,33,69.20
2012,03,12,09,34,70.80
2012,03,12,09,35,57.90
2012,03,12,09,36,70.80
2012,03,12,09,37,67.60
2012,03,12,09,38,69.20
2012,03,12,09,39,64.40
2012,03,12,09,40,74.00
2012,03,12,09,41,74.00
2012,03,12,09,42,67.60
2012,03,12,09,43,72.40
2012,03,12,09,44,70.80
2012,03,12,09,45,62.70
2012,03,12,09,46,62.70
2012,03,12,09,47,67.60
2012,03,12,09,48,80.50
2012,03,12,09,49,83.70
2012,03,12,09,50,78.80
2012,03,12,09,51,61.20
2012,03,12,09,52,54.70
2012,03,12,09,53,48.30
2012,03,12,09,54,59.50
2012,03,12,09,55,54.70
2012,03,12,09,56,56.30
2012,03,12,09,57,74.00
2012,03,12,09,58,64.40
2012,03,12,09,59,54.70
2012,03,12,10,00,67.60
2012,03,12,10,01,57.90
2012,03,12,10,02,66.00
2012,03,12,10,03,72.40
2012,03,12,10,04,53.10
2012,03,12,10,05,66.00
2012,03,12,10,06,69.20
2012,03,12,10,07,54.70
2012,03,12,10,08,56.30
2012,03,12,10,09,41.80
2012,03,12,10,10,46.70
2012,03,12,10,11,51.50
2012,03,12,10,12,56.30
2012,03,12,10,13,72.40
2012,03,12,10,14,77.30
2012,03,12,10,15,56.30
2012,03,12,10,16,56.30
2012,03,12,10,17,43.50
2012,03,12,10,18,54.70
2012,03,12,10,19,38.60
2012,03,12,10,20,54.70
2012,03,12,10,21,45.10
2012,03,12,10,22,45.10
2012,03,12,10,23,53.10
2012,03,12,10,24,48.30
2012,03,12,10,25,53.10
2012,03,12,10,26,40.20
2012,03,12,10,27,61.20
2012,03,12,10,28,51.50
2012,03,12,10,29,48.30
2012,03,12,10,30,51.50
2012,03,12,10,31,37.00
2012,03,12,10,32,43.50
2012,03,12,10,33,40.20
2012,03,12,10,34,43.50
2012,03,12,10,35,66.00
2012,03,12,10,36,57.90
2012,03,12,10,37,53.10
2012,03,12,10,38,46.70
2012,03,12,10,39,41.80
2012,03,12,10,40,48.30
2012,03,12,10,41,33.80
2012,03,12,10,42,51.50
2012,03,12,10,43,48.30
2012,03,12,10,44,37.00
2012,03,12,10,45,38.60
2012,03,12,10,46,30.60
2012,03,12,10,47,43.50
2012,03,12,10,48,56.30
2012,03,12,10,49,43.50
2012,03,12,10,50,62.70
2012,03,12,10,51,48.30
2012,03,12,10,52,45.10
2012,03,12,10,53,35.40
2012,03,12,10,54,37.00
2012,03,12,10,55,30.60
2012,03,12,10,56,38.60
2012,03,12,10,57,41.80
2012,03,12,10,58,30.60
2012,03,12,10,59,35.40
2012,03,12,11,00,35.40
2012,03,12,11,01,29.00
2012,03,12,11,02,43.50
2012,03,12,11,03,38.60
2012,03,12,11,04,49.90
2012,03,12,11,05,30.60
2012,03,12,11,06,32.20
2012,03,12,11,07,49.90
2012,03,12,11,08,41.80
2012,03,12,11,09,41.80
2012,03,12,11,10,48.30
2012,03,12,11,11,33.80
2012,03,12,11,12,32.20
2012,03,12,11,13,37.00
2012,03,12,11,14,38.60
2012,03,12,11,15,30.60
2012,03,12,11,16,37.00
2012,03,12,11,17,38.60
2012,03,12,11,18,32.20
2012,03,12,11,19,33.80
2012,03,12,11,20,27.40
2012,03,12,11,21,24.20
2012,03,12,11,22,41.80
2012,03,12,11,23,40.20
2012,03,12,11,24,38.60
2012,03,12,11,25,45.10
2012,03,12,11,26,46.70
2012,03,12,11,27,41.80
2012,03,12,11,28,41.80
2012,03,12,11,29,45.10
2012,03,12,11,30,37.00
2012,03,12,11,31,45.10
2012,03,12,11,32,24.20
2012,03,12,11,33,46.70
2012,03,12,11,34,35.40
2012,03,12,11,35,32.20
2012,03,12,11,36,41.80
2012,03,12,11,37,38.60
2012,03,12,11,38,43.50
2012,03,12,11,39,32.20
2012,03,12,11,40,27.40
2012,03,12,11,41,43.50
2012,03,12,11,42,35.40
2012,03,12,11,43,38.60
2012,03,12,11,44,35.40
2012,03,12,11,45,40.20
2012,03,12,11,46,32.20
2012,03,12,11,47,41.80
2012,03,12,11,48,40.20
2012,03,12,11,49,37.00
2012,03,12,11,50,45.10
2012,03,12,11,51,38.60
2012,03,12,11,52,35.40
2012,03,12,11,53,32.20
2012,03,12,11,54,38.60
2012,03,12,11,55,38.60
2012,03,12,11,56,33.80
2012,03,12,11,57,41.80
2012,03,12,11,58,35.40
2012,03,12,11,59,37.00
2012,03,12,12,00,41.80
2012,03,12,12,01,40.20
2012,03,12,12,02,33.80
2012,03,12,12,03,24.20
2012,03,12,12,04,27.40
2012,03,12,12,05,24.20
2012,03,12,12,06,38.60
2012,03,12,12,07,43.50
2012,03,12,12,08,32.20
2012,03,12,12,09,40.20
2012,03,12,12,10,33.80
2012,03,12,12,11,24.20
2012,03,12,12,12,19.30
2012,03,12,12,13,20.90
2012,03,12,12,14,17.70
2012,03,12,12,15,32.20
2012,03,12,12,16,30.60
2012,03,12,12,17,22.50
2012,03,12,12,18,33.80
2012,03,12,12,19,17.70
2012,03,12,12,20,30.60
2012,03,12,12,21,29.00
2012,03,12,12,22,29.00
2012,03,12,12,23,29.00
2012,03,12,12,24,33.80
2012,03,12,12,25,29.00
2012,03,12,12,26,24.20
2012,03,12,12,27,22.50
2012,03,12,12,28,19.30
2012,03,12,12,29,9.60
2012,03,12,12,30,20.90
2012,03,12,12,31,24.20
2012,03,12,12,32,16.10
2012,03,12,12,33,20.90
2012,03,12,12,34,11.30
2012,03,12,12,35,11.30
2012,03,12,12,36,12.90
2012,03,12,12,37,19.30
2012,03,12,12,38,17.70
2012,03,12,12,39,11.30
2012,03,12,12,40,16.10
2012,03,12,12,41,14.50
2012,03,12,12,42,17.70
2012,03,12,12,43,22.50
2012,03,12,12,44,14.50
2012,03,12,12,45,8.10
2012,03,12,12,46,8.10
2012,03,12,12,47,11.30
2012,03,12,12,48,9.60
2012,03,12,12,49,12.90
2012,03,12,12,50,9.60
2012,03,12,12,51,9.60
2012,03,12,12,52,11.30
2012,03,12,12,53,16.10
2012,03,12,12,54,22.50
2012,03,12,12,55,9.60
2012,03,12,12,56,11.30
2012,03,12,12,57,8.10
2012,03,12,12,58,9.60
2012,03,12,12,59,8.10
2012,03,12,13,00,6.40
2012,03,12,13,01,6.40
2012,03,12,13,02,4.80
2012,03,12,13,03,3.20
2012,03,12,13,04,4.80
2012,03,12,13,05,6.40
2012,03,12,13,06,4.80
2012,03,12,13,07,4.80
2012,03,12,13,08,3.20
2012,03,12,13,09,4.80
2012,03,12,13,10,9.60
2012,03,12,13,11,9.60
2012,03,12,13,12,6.40
2012,03,12,13,13,6.40
2012,03,12,13,14,8.10
2012,03,12,13,15,3.20
2012,03,12,13,16,4.80
2012,03,12,13,17,4.80
2012,03,12,13,18,6.40
2012,03,12,13,19,6.40
2012,03,12,13,20,6.40
2012,03,12,13,21,4.80
2012,03,12,13,22,1.60
2012,03,12,13,23,3.20
2012,03,12,13,24,1.60
2012,03,12,13,25,3.20
2012,03,12,13,26,3.20
2012,03,12,13,27,3.20
2012,03,12,13,28,4.80
2012,03,12,13,29,4.80
2012,03,12,13,30,3.20
2012,03,12,13,31,3.20
2012,03,12,13,32,1.60
2012,03,12,13,33,8.10
2012,03,12,13,34,8.10
2012,03,12,13,35,8.10
2012,03,12,13,36,6.40
2012,03,12,13,37,8.10
2012,03,12,13,38,6.40
2012,03,12,13,39,6.40
2012,03,12,13,40,3.20
2012,03,12,13,41,3.20
2012,03,12,13,42,3.20
2012,03,12,13,43,6.40
2012,03,12,13,44,4.80
2012,03,12,13,45,8.10
2012,03,12,13,46,8.10
2012,03,12,13,47,9.60
2012,03,12,13,48,8.10
2012,03,12,13,49,8.10
2012,03,12,13,50,6.40
2012,03,12,13,51,3.20
2012,03,12,13,52,8.10
2012,03,12,13,53,8.10
2012,03,12,13,54,6.40
2012,03,12,13,55,4.80
2012,03,12,13,56,3.20
2012,03,12,13,57,4.80
2012,03,12,14,02,1.60
2012,03,12,14,03,4.80
2012,03,12,14,04,4.80
2012,03,12,14,05,4.80
2012,03,12,14,06,4.80
2012,03,12,14,07,4.80
2012,03,12,14,08,6.40
2012,03,12,14,09,4.80
2012,03,12,14,10,3.20
2012,03,12,14,11,4.80
2012,03,12,14,12,6.40
2012,03,12,14,13,3.20
2012,03,12,14,14,4.80
2012,03,12,14,15,3.20
2012,03,12,14,16,1.60
2012,03,12,14,17,3.20
2012,03,12,14,18,1.60
2012,03,12,14,19,1.60
2012,03,12,14,20,1.60
2012,03,12,14,21,1.60
2012,03,12,14,24,1.60
2012,03,12,14,25,3.20
2012,03,12,14,26,3.20
2012,03,12,14,27,3.20
2012,03,12,14,28,1.60
2012,03,12,14,29,3.20
2012,03,12,14,30,3.20
2012,03,12,14,31,4.80
2012,03,12,14,32,4.80
2012,03,12,14,33,4.80
2012,03,12,14,34,3.20
2012,03,12,14,35,4.80
2012,03,12,14,36,6.40
2012,03,12,14,37,9.60
2012,03,12,14,38,6.40
2012,03,12,14,39,8.10
2012,03,12,14,40,9.60
2012,03,12,14,41,8.10
2012,03,12,14,42,6.40
2012,03,12,14,43,6.40
2012,03,12,14,44,9.60
2012,03,12,14,45,6.40
2012,03,12,14,46,8.10
2012,03,12,14,47,8.10
2012,03,12,14,48,9.60
2012,03,12,14,49,8.10
2012,03,12,14,50,6.40
2012,03,12,14,51,6.40
2012,03,12,14,52,4.80
2012,03,12,14,53,8.10
2012,03,12,14,54,6.40
2012,03,12,14,55,4.80
2012,03,12,14,56,3.20
2012,03,12,14,57,6.40
2012,03,12,14,58,6.40
2012,03,12,14,59,9.60
2012,03,12,15,00,8.10
2012,03,12,15,01,6.40
2012,03,12,15,02,8.10
2012,03,12,15,03,8.10
2012,03,12,15,04,6.40
2012,03,12,15,05,8.10
2012,03,12,15,06,8.10
2012,03,12,15,07,8.10
2012,03,12,15,08,11.30
2012,03,12,15,09,6.40
2012,03,12,15,10,8.10
2012,03,12,15,11,1.60
2012,03,12,15,12,3.20
2012,03,12,15,13,1.60
2012,03,12,15,14,1.60
2012,03,12,15,15,1.60
2012,03,12,15,16,1.60
2012,03,12,15,17,1.60
2012,03,12,15,18,1.60
2012,03,12,15,27,1.60
2012,03,12,15,28,1.60
2012,03,12,15,29,1.60
2012,03,12,15,30,1.60
2012,03,12,15,31,3.20
2012,03,12,15,32,3.20
2012,03,12,15,33,3.20
2012,03,12,15,34,3.20
2012,03,12,15,35,3.20
2012,03,12,15,36,1.60
2012,03,12,15,37,3.20
2012,03,12,15,38,1.60
2012,03,12,15,39,1.60
2012,03,12,15,40,1.60
2012,03,12,15,41,1.60
2012,03,12,15,42,1.60
2012,03,12,15,43,1.60
2012,03,12,15,44,1.60
2012,03,12,15,45,1.60
2012,03,12,15,46,1.60
2012,03,12,15,48,1.60
2012,03,12,15,49,1.60
2012,03,12,15,50,1.60
2012,03,12,15,51,1.60
2012,03,12,15,52,3.20
2012,03,12,15,53,1.60
2012,03,12,15,54,3.20
2012,03,12,15,55,6.40
2012,03,12,15,56,3.20
2012,03,12,15,57,1.60
2012,03,12,15,58,1.60
2012,03,12,15,59,1.60
2012,03,12,16,00,1.60
2012,03,12,16,01,1.60
2012,03,12,16,02,1.60
2012,03,12,16,03,3.20
2012,03,12,16,04,3.20
2012,03,12,16,05,1.60
2012,03,12,16,06,1.60
2012,03,12,16,12,1.60
2012,03,12,16,14,3.20
2012,03,12,16,27,1.60
2012,03,12,16,28,1.60
2012,03,12,16,29,6.40
2012,03,12,16,30,3.20
2012,03,12,16,31,3.20
2012,03,12,16,32,1.60
2012,03,12,16,33,3.20
2012,03,12,16,34,1.60
2012,03,12,16,35,3.20
2012,03,12,16,36,1.60
2012,03,12,16,38,1.60
2012,03,12,16,39,1.60
2012,03,12,16,40,3.20
2012,03,12,16,41,3.20
2012,03,12,16,42,6.40
2012,03,12,16,43,3.20
2012,03,12,16,44,3.20
2012,03,12,16,45,3.20
2012,03,12,16,46,1.60
2012,03,12,16,47,1.60
2012,03,12,16,50,1.60
2012,03,12,16,51,1.60
2012,03,12,16,52,3.20
2012,03,12,16,53,6.40
2012,03,12,16,54,8.10
2012,03,12,16,55,3.20
2012,03,12,16,56,9.60
2012,03,12,16,57,14.50
2012,03,12,16,58,11.30
2012,03,12,16,59,14.50
2012,03,12,17,00,14.50
2012,03,12,17,01,16.10
2012,03,12,17,02,11.30
2012,03,12,17,03,9.60
2012,03,12,17,04,8.10
2012,03,12,17,05,8.10
2012,03,12,17,06,9.60
2012,03,12,17,07,11.30
2012,03,12,17,08,6.40
2012,03,12,17,09,3.20
2012,03,12,17,10,8.10
2012,03,12,17,11,8.10
2012,03,12,17,12,8.10
2012,03,12,17,13,9.60
2012,03,12,17,14,8.10
2012,03,12,17,15,8.10
2012,03,12,17,16,8.10
2012,03,12,17,17,9.60
2012,03,12,17,18,11.30
2012,03,12,17,19,11.30
2012,03,12,17,20,11.30
2012,03,12,17,21,3.20
2012,03,12,17,22,8.10
2012,03,12,17,23,11.30
2012,03,12,17,24,8.10
2012,03,12,17,25,8.10
2012,03,12,17,26,8.10
2012,03,12,17,27,8.10
2012,03,12,17,28,8.10
2012,03,12,17,29,6.40
2012,03,12,17,30,6.40
2012,03,12,17,31,6.40
2012,03,12,17,32,8.10
2012,03,12,17,33,8.10
2012,03,12,17,34,8.10
2012,03,12,17,35,6.40
2012,03,12,17,36,9.60
2012,03,12,17,37,6.40
2012,03,12,17,38,8.10
2012,03,12,17,39,8.10
2012,03,12,17,40,8.10
2012,03,12,17,41,6.40
2012,03,12,17,42,1.60
2012,03,12,17,43,6.40
2012,03,12,17,44,3.20
2012,03,12,17,45,6.40
2012,03,12,17,46,8.10
2012,03,12,17,47,8.10
2012,03,12,17,48,8.10
2012,03,12,17,49,6.40
2012,03,12,17,50,3.20
2012,03,12,17,51,3.20
2012,03,12,17,52,1.60
2012,03,12,17,53,3.20
2012,03,12,17,54,9.60
2012,03,12,17,55,9.60
2012,03,12,17,56,8.10
2012,03,12,17,57,8.10
2012,03,12,17,58,1.60
2012,03,12,17,59,6.40
2012,03,12,18,00,6.40
2012,03,12,18,01,8.10
2012,03,12,18,02,3.20
2012,03,12,18,04,8.10
2012,03,12,18,05,8.10
2012,03,12,18,06,3.20
2012,03,12,18,07,11.30
2012,03,12,18,08,12.90